Home > Weather > Kiel > Past weeks

Flag for Germany Weather for the Past 2 Weeks in Kiel, Schleswig-Holstein, Germany

Now
34 °F

Low clouds.


Feels Like: 23 °F
Forecast: 31 / 34 °F
Wind: 18 mph from East

Location: Kiel / Holtenau Civilian

Current Time: Feb 14, 2016 at 5:00:47 AM

Latest Report: Feb 14, 2016 at 3:50 AM


Visibility: 4 mi

Pressure: 29.27 "Hg

Humidity: 100%

Dew point: 34 °F

Location of KielLocation

Historic Weather in Kiel — Graph

°F

Kiel Temperature Yesterday

Maximum temperature yesterday: 36 °F (at 11:50 AM)
Minimum temperature yesterday: 30 °F (at 8:20 AM)
Average temperature yesterday: 34 °F

High & Low Weather Summary for the Past Weeks

 TemperatureHumidityPressure
High52 °F (Feb 7, 1:50 PM)100% (Jan 30, 8:50 AM)30.12 "Hg (Jan 30, 8:50 AM)
Low30 °F (Feb 13, 8:20 AM)66% (Feb 8, 2:20 PM)29.00 "Hg (Feb 9, 5:50 PM)
Average41 °F89%29.54 "Hg
* Reported Jan 30 8:50 AM — Feb 14 3:20 AM, Kiel, Weather by CustomWeather, © 2016

Note: Actual official high and low records may vary slightly from our data, if they occured in-between our weather recording intervals... More about our weather records

Advertising

Kiel Weather History for the Previous 24 Hours

 ConditionsComfort  
Time TempWeatherWind HumidityBarometerVisibility
3:20 AM
Sun, Feb 14
36 °FOvercast.20 mph93%29.27 "HgN/A
2:50 AM36 °FMostly cloudy.18 mph93%29.27 "HgN/A
2:20 AM37 °FOvercast.16 mph93%29.27 "Hg4 mi
1:50 AM36 °FPassing clouds.16 mph100%29.27 "Hg4 mi
1:20 AM37 °FPassing clouds.14 mph93%29.27 "Hg4 mi
3:50 PM
Sat, Feb 13
36 °FLow clouds.10 mph93%29.39 "HgN/A
3:20 PM36 °FLow clouds.10 mph93%29.39 "HgN/A
2:50 PM34 °FLow clouds.9 mph100%29.39 "Hg6 mi
2:20 PM34 °FLow clouds.7 mph100%29.42 "Hg4 mi
1:50 PM34 °FLow clouds.9 mph100%29.42 "Hg4 mi
1:20 PM34 °FLow clouds.9 mph100%29.42 "Hg6 mi
12:50 PM36 °FLow clouds.7 mph93%29.42 "Hg5 mi
12:20 PM34 °FPartly sunny.8 mph100%29.42 "Hg5 mi
11:50 AM36 °FScattered clouds.6 mph100%29.45 "Hg4 mi
11:20 AM34 °FFog.6 mph100%29.45 "Hg2 mi
10:50 AM34 °FPassing clouds.7 mph100%29.45 "Hg3 mi
10:20 AM34 °FFog.5 mph100%29.45 "Hg3 mi
9:50 AM32 °FBroken clouds.6 mph100%29.45 "Hg2 mi
8:50 AM30 °FIce fog.5 mph100%29.47 "Hg2 mi
8:20 AM30 °FPartly sunny.3 mph100%29.47 "Hg1 mi
Weather by CustomWeather, © 2016

See weather overviewHow to use our weather pages